Location: Barcelona
(41.3830°N, 2.1830°E)
Time: 01:20:54
(UTC+02:00)

ISS - Pass Details

Date: 27 July 2019
Orbit: 410 x 420 km, 51.6° (Epoch: 19 August)

Event Time Altitude Azimuth Distance (km) Brightness Sun altitude
Rises 23:26:52 0° 309° (NW) 2,371 1.5 -20.1°
Reaches altitude 10° 23:29:20 10° 327° (NNW) 1,503 0.3 -20.4°
Maximum altitude 23:31:57 20° 17° (NNE) 1,021 -1.4 -20.7°
Enters shadow 23:33:18 16° 49° (NE) 1,167 -1.5 -20.9°
